Wind_Speed
36 36 35 36 36 35 36 37 37 36 34 34 34 32 31 31 29 29 28 27 26 26 25 24 23 24 25 25 24 22 22 21 21 21 21 21 20 19 17 16 14 13 11
38 37 35 36 37 37 38 37 39 38 36 35 34 33 32 32 30 28 28 27 27 26 24 23 24 24 24 25 25 24 23 23 23 22 22 22 23 22 20 18 17 15 14
39 38 37 36 36 37 39 39 38 38 36 35 34 35 34 33 31 30 29 28 28 27 25 24 24 23 23 23 24 24 23 23 23 23 22 23 24 24 23 21 19 18 16
40 39 37 37 37 36 37 38 39 38 37 37 36 36 36 34 33 31 30 29 28 27 25 24 24 23 23 22 22 23 22 22 22 22 22 23 25 25 25 24 22 20 19
40 39 39 38 38 36 36 37 37 38 38 38 37 36 36 34 33 32 31 31 29 28 25 24 24 23 22 21 21 22 22 21 21 20 21 22 24 25 26 26 25 23 22
41 41 40 40 39 37 36 36 36 36 36 37 37 36 35 34 33 32 31 31 30 29 26 24 23 22 21 21 20 20 20 20 19 19 20 21 23 25 26 26 27 26 25
42 42 41 40 40 38 38 37 36 35 35 35 36 35 35 35 33 33 32 31 30 29 28 26 23 23 22 21 20 19 19 19 19 18 18 19 20 23 24 25 27 27 27
43 43 42 42 42 41 39 36 36 36 35 35 34 36 37 35 33 33 32 31 30 29 28 27 25 24 22 21 19 19 18 18 17 17 17 17 17 18 20 21 24 27 27
43 44 44 43 43 42 41 39 37 36 35 35 36 37 36 35 33 32 32 31 30 29 29 28 26 25 23 21 19 18 17 16 15 15 15 16 17 18 18 19 20 23 26
43 43 44 44 43 43 42 40 39 38 36 35 36 37 37 36 35 33 33 32 31 31 31 29 27 26 24 22 20 18 17 16 15 15 15 15 15 16 17 18 19 21 23
44 44 44 44 43 43 41 40 39 38 38 37 36 37 38 37 36 35 33 32 33 33 31 30 28 27 25 23 21 20 18 17 15 14 14 13 14 14 15 17 18 19 21
44 43 42 42 42 42 41 41 40 40 39 38 37 37 37 37 37 37 35 34 34 34 33 32 30 29 28 26 23 21 20 18 16 15 14 13 12 13 14 15 17 19 21
43 43 42 41 41 41 41 41 41 41 42 41 40 39 38 38 39 40 38 37 36 36 35 34 32 31 30 28 26 24 21 19 17 15 14 12 12 12 13 14 16 18 20
43 43 44 43 42 42 42 42 42 42 43 44 43 42 40 39 39 40 40 39 38 38 37 36 35 34 32 30 29 26 24 21 19 16 15 13 12 12 13 14 16 18 20
44 44 45 45 44 44 44 44 44 43 44 45 45 45 44 43 40 40 41 41 40 39 39 38 37 37 35 33 32 29 26 23 20 18 16 14 13 13 12 13 15 17 18
45 46 47 48 48 49 48 48 48 47 47 46 46 47 47 48 45 43 42 42 42 42 41 41 39 39 37 36 34 32 29 26 23 20 17 16 14 13 13 13 14 15 16
46 47 48 50 51 52 53 52 52 51 51 50 48 48 50 50 49 47 45 44 44 44 43 43 41 41 40 38 36 34 32 29 25 22 19 17 15 14 13 13 14 14 16
46 47 49 51 53 55 55 56 55 55 55 55 53 52 52 52 51 50 48 47 46 45 45 44 43 43 42 41 39 37 35 32 28 25 21 18 16 14 13 13 13 14 15
47 48 49 50 52 54 56 57 57 58 58 57 57 57 56 55 54 53 51 50 48 47 46 46 45 45 44 43 42 40 37 34 31 27 23 20 17 15 13 13 13 13 14
48 48 48 49 51 52 54 56 57 57 58 59 59 59 59 59 57 57 54 53 52 49 48 49 48 47 47 46 44 41 39 37 34 30 26 22 18 16 14 13 13 13 13
47 47 48 48 48 49 50 51 53 54 55 56 58 58 60 61 60 60 58 56 55 53 51 50 49 48 48 47 45 43 41 39 37 33 29 25 21 18 15 14 13 13 14
46 46 46 45 44 44 44 45 47 49 50 52 55 57 58 60 61 63 61 59 59 57 54 52 50 49 49 48 48 46 44 42 39 36 32 28 24 20 17 15 14 14 14
44 44 44 42 40 40 41 41 43 45 47 49 52 54 55 58 60 62 63 62 62 60 57 55 52 48 48 49 49 48 47 44 42 38 35 30 26 24 20 17 15 15 15
42 42 41 39 37 37 36 37 39 41 43 45 48 52 53 55 57 60 62 63 63 62 59 56 54 52 50 49 49 50 49 47 44 41 37 33 29 26 23 19 17 16 16
40 40 38 36 34 32 30 30 31 34 36 39 43 47 50 52 53 55 58 61 62 63 62 58 56 54 51 50 49 50 49 47 44 42 39 35 32 29 25 22 20 18 17
39 37 36 33 31 28 25 23 24 26 28 32 37 41 45 47 49 51 53 57 59 60 61 60 57 56 53 51 49 49 48 47 45 43 41 38 35 31 28 25 23 20 18
Wind_Direction
294 294 293 293 291 289 286 283 279 274 270 266 264 261 260 263 262 263 260 254 251 252 252 255 255 252 248 247 249 251 247 245 243 240 238 233 231 229 227 226 225 225 223
294 292 292 293 292 291 287 285 282 275 270 266 264 260 258 259 260 261 256 251 249 251 251 252 253 250 248 247 248 249 248 246 243 241 239 235 231 229 229 229 228 228 226
291 289 289 291 291 291 288 284 285 277 269 267 264 260 258 257 256 255 253 250 247 247 249 249 249 248 247 247 248 248 249 246 243 239 240 238 234 230 229 229 229 229 230
287 287 287 289 290 289 288 286 285 276 270 267 265 260 257 256 254 253 251 247 244 244 245 246 246 245 245 247 247 247 246 244 243 240 238 240 237 233 231 230 231 231 231
285 285 285 287 287 286 286 285 281 277 270 266 262 259 255 254 254 253 250 246 243 243 243 244 244 244 245 246 246 244 243 242 242 240 237 238 237 235 234 233 233 233 233
284 284 283 285 284 282 283 283 281 276 270 264 260 256 253 254 254 251 248 246 245 242 240 240 241 242 244 243 242 239 238 240 240 239 237 239 239 236 236 234 233 233 235
284 283 282 282 282 281 280 279 278 274 269 264 259 254 253 252 253 251 248 244 242 239 238 235 237 239 240 240 238 236 235 237 238 239 240 241 239 238 237 238 237 237 238
283 282 282 281 280 280 279 276 274 273 269 262 258 254 253 250 249 248 246 244 239 236 235 234 232 235 237 236 235 233 233 234 235 236 236 238 238 237 238 241 240 240 240
283 281 280 279 278 277 277 274 273 272 267 261 254 252 252 249 248 246 244 242 238 234 232 232 230 229 230 229 229 227 227 227 228 230 233 235 237 235 238 240 242 243 242
285 283 282 280 278 276 275 273 271 269 264 262 256 252 251 250 244 242 241 238 235 232 230 229 228 226 224 223 220 219 220 220 222 226 230 233 236 238 240 243 244 244 243
287 285 282 281 278 276 273 270 268 265 263 260 257 252 249 246 242 240 238 235 232 230 228 226 225 222 220 219 215 214 216 216 219 224 229 233 237 240 244 246 246 246 245
288 286 283 281 279 276 273 270 266 263 260 258 256 253 248 244 241 239 235 232 230 228 226 223 221 219 217 215 213 211 213 215 218 222 227 232 237 242 245 248 250 249 248
290 287 285 283 281 278 274 270 266 263 259 257 253 251 247 243 240 237 234 231 229 228 226 222 220 217 213 212 211 210 212 215 217 220 226 233 239 244 248 251 254 254 252
290 287 285 283 281 278 275 271 267 263 260 257 254 250 247 245 241 238 235 231 227 226 225 222 219 216 213 211 211 210 211 214 217 220 227 234 240 246 252 256 258 258 256
288 286 283 281 279 277 274 272 269 264 259 255 253 249 247 245 243 237 234 231 227 225 223 222 219 216 214 212 211 211 212 214 217 220 225 234 241 247 255 260 263 262 259
287 285 283 281 278 276 273 271 268 264 260 255 252 248 246 244 242 239 234 230 226 224 223 221 219 217 215 212 211 211 213 214 217 220 226 234 240 247 254 261 265 264 262
288 286 283 281 279 276 273 270 267 264 260 255 252 248 245 242 240 238 235 230 227 225 223 221 219 218 216 213 212 211 213 215 218 220 225 232 239 245 253 260 266 266 263
291 288 286 282 279 276 273 269 266 262 259 254 250 247 244 241 239 238 236 233 228 223 222 221 219 218 217 215 213 213 214 216 218 220 224 230 236 244 253 260 266 267 264
295 292 289 286 282 277 273 269 265 261 257 253 249 245 242 240 237 236 234 232 229 225 223 222 219 219 218 216 215 215 215 216 218 220 222 227 234 242 252 260 265 266 265
299 296 293 289 284 280 274 269 265 260 256 252 248 244 241 238 236 234 232 231 229 228 225 222 222 219 218 217 216 216 216 216 218 219 222 226 232 239 248 257 262 264 264
303 300 297 292 288 282 276 269 264 259 254 250 246 243 240 237 235 233 231 229 228 227 225 223 222 220 219 218 217 217 217 217 218 219 221 225 230 237 245 253 259 263 264
308 305 301 297 291 285 278 270 264 258 253 248 244 241 238 235 233 232 231 228 226 225 225 224 223 221 220 219 218 218 218 218 218 219 221 224 229 235 241 248 256 261 263
313 310 307 301 296 288 280 271 264 258 252 247 243 238 235 232 231 229 229 228 226 224 224 224 223 220 220 219 219 219 219 218 219 219 221 224 228 232 238 244 253 259 261
318 315 312 307 302 294 284 274 266 260 252 245 240 235 232 230 229 227 226 226 226 224 223 223 224 222 220 219 219 218 219 219 219 220 222 224 227 231 235 240 248 254 258
321 319 318 313 308 302 292 279 268 259 250 241 234 230 228 227 226 225 224 224 225 225 223 222 223 222 220 220 219 219 219 219 220 221 221 223 226 230 233 237 243 249 254
326 324 323 318 315 310 300 286 272 260 248 237 229 225 223 223 223 223 222 222 222 223 223 223 222 221 222 220 220 219 218 218 220 222 222 223 226 229 231 236 240 246 251
Height
5855 5854 5852 5850 5848 5847 5847 5847 5847 5847 5849 5850 5851 5854 5855 5857 5858 5859 5860 5862 5863 5865 5867 5869 5870 5872 5874 5876 5879 5881 5883 5885 5887 5890 5892 5894 5896 5898 5901 5903 5905 5907 5908
5848 5847 5845 5843 5841 5839 5838 5837 5838 5838 5839 5841 5843 5845 5848 5849 5851 5853 5853 5855 5857 5859 5862 5863 5865 5867 5869 5871 5874 5876 5878 5881 5883 5885 5888 5890 5892 5895 5898 5900 5902 5904 5906
5841 5839 5838 5836 5834 5832 5830 5829 5829 5828 5830 5832 5835 5836 5838 5841 5843 5845 5847 5850 5852 5854 5856 5858 5859 5861 5864 5866 5868 5871 5873 5876 5878 5881 5883 5886 5889 5891 5894 5896 5899 5901 5903
5832 5831 5830 5829 5827 5825 5823 5821 5820 5820 5820 5823 5825 5827 5830 5833 5835 5837 5840 5843 5845 5848 5850 5852 5854 5856 5859 5861 5863 5866 5868 5871 5873 5876 5879 5881 5884 5887 5890 5893 5895 5898 5900
5823 5822 5822 5820 5819 5817 5815 5814 5813 5812 5811 5814 5816 5819 5821 5824 5827 5830 5833 5836 5839 5841 5844 5846 5848 5851 5853 5856 5858 5861 5863 5866 5869 5871 5874 5876 5879 5883 5885 5888 5891 5894 5896
5815 5813 5813 5812 5810 5809 5808 5806 5805 5804 5803 5805 5807 5810 5813 5816 5819 5822 5825 5828 5832 5834 5837 5840 5843 5845 5848 5850 5853 5856 5858 5861 5864 5866 5869 5872 5874 5877 5880 5884 5886 5889 5892
5805 5804 5802 5802 5800 5799 5799 5798 5797 5796 5796 5797 5798 5801 5805 5808 5811 5814 5817 5821 5824 5828 5831 5834 5837 5840 5843 5845 5848 5851 5854 5857 5859 5862 5864 5867 5869 5872 5875 5878 5881 5884 5887
5795 5794 5792 5791 5790 5790 5789 5789 5788 5788 5789 5789 5791 5793 5796 5800 5803 5806 5809 5813 5817 5821 5824 5828 5832 5835 5838 5841 5844 5846 5849 5852 5855 5857 5860 5862 5865 5867 5870 5873 5876 5879 5882
5784 5783 5782 5781 5780 5780 5779 5779 5779 5780 5781 5781 5782 5785 5788 5792 5795 5799 5801 5805 5809 5813 5817 5821 5825 5829 5833 5836 5839 5842 5845 5848 5850 5853 5856 5858 5861 5863 5866 5868 5871 5873 5876
5773 5771 5770 5769 5769 5769 5769 5769 5769 5770 5772 5773 5774 5777 5780 5783 5787 5791 5794 5798 5802 5806 5811 5815 5819 5823 5827 5831 5834 5838 5841 5843 5846 5849 5852 5854 5856 5859 5861 5863 5865 5868 5870
5761 5759 5758 5757 5757 5757 5757 5758 5759 5760 5761 5764 5766 5768 5770 5773 5777 5782 5786 5790 5794 5799 5804 5808 5813 5817 5822 5826 5830 5833 5836 5839 5842 5845 5848 5850 5852 5854 5856 5858 5860 5862 5865
5749 5747 5746 5745 5745 5745 5745 5747 5748 5750 5751 5754 5756 5759 5761 5764 5768 5772 5777 5782 5786 5791 5796 5801 5806 5811 5816 5821 5825 5828 5832 5835 5838 5841 5843 5845 5848 5850 5852 5853 5855 5857 5859
5737 5735 5734 5733 5733 5733 5733 5734 5736 5738 5740 5743 5746 5749 5752 5754 5758 5763 5768 5773 5778 5784 5789 5794 5799 5804 5809 5815 5819 5823 5827 5830 5834 5837 5839 5841 5843 5845 5847 5849 5850 5852 5853
5726 5724 5722 5721 5721 5721 5721 5722 5724 5726 5728 5731 5734 5738 5741 5745 5749 5754 5758 5764 5769 5775 5781 5786 5791 5797 5803 5808 5813 5818 5822 5825 5829 5832 5835 5837 5839 5841 5842 5844 5845 5847 5848
5715 5713 5710 5709 5708 5708 5708 5709 5710 5712 5715 5718 5721 5726 5730 5734 5739 5744 5748 5754 5760 5766 5773 5778 5784 5789 5795 5801 5806 5812 5816 5820 5824 5827 5830 5832 5834 5836 5837 5839 5840 5841 5842
5703 5700 5698 5696 5694 5694 5694 5695 5696 5698 5701 5704 5708 5712 5718 5723 5728 5733 5738 5743 5750 5757 5763 5769 5776 5782 5787 5793 5799 5805 5810 5815 5819 5822 5825 5827 5830 5831 5833 5834 5835 5836 5837
5690 5687 5684 5681 5679 5678 5678 5678 5680 5682 5686 5689 5694 5698 5704 5709 5716 5722 5728 5733 5740 5747 5754 5760 5767 5773 5779 5785 5792 5797 5803 5808 5813 5816 5819 5822 5825 5826 5828 5829 5830 5831 5832
5675 5672 5668 5665 5662 5660 5659 5660 5662 5664 5668 5672 5677 5683 5689 5694 5701 5708 5715 5722 5729 5736 5743 5750 5757 5764 5770 5777 5783 5790 5796 5801 5806 5810 5814 5817 5820 5821 5823 5824 5825 5826 5827
5661 5656 5652 5648 5644 5641 5640 5640 5641 5644 5648 5653 5659 5665 5672 5679 5687 5695 5702 5710 5717 5724 5732 5739 5747 5754 5760 5768 5775 5782 5788 5794 5800 5804 5808 5811 5814 5816 5818 5819 5820 5821 5822
5645 5639 5634 5629 5625 5622 5620 5619 5620 5622 5626 5632 5639 5646 5654 5662 5671 5679 5688 5696 5705 5712 5720 5728 5736 5743 5751 5758 5766 5773 5780 5786 5792 5797 5801 5805 5808 5811 5813 5814 5815 5817 5817
5629 5622 5616 5611 5605 5601 5599 5598 5599 5601 5605 5611 5618 5627 5635 5644 5653 5663 5672 5682 5691 5700 5708 5716 5724 5732 5741 5749 5758 5765 5771 5778 5784 5790 5795 5799 5803 5805 5807 5809 5811 5812 5813
5613 5606 5599 5593 5587 5582 5580 5579 5579 5581 5586 5592 5599 5607 5615 5625 5636 5646 5656 5667 5677 5686 5696 5705 5714 5722 5731 5740 5748 5756 5763 5770 5777 5782 5787 5792 5796 5800 5802 5804 5806 5807 5808
5599 5591 5584 5577 5571 5566 5562 5561 5561 5563 5568 5574 5581 5588 5597 5607 5618 5629 5641 5651 5662 5673 5684 5694 5703 5712 5721 5730 5738 5746 5753 5761 5768 5774 5780 5786 5790 5793 5796 5798 5800 5802 5803
5587 5579 5571 5563 5557 5551 5547 5545 5545 5546 5551 5557 5563 5571 5580 5591 5602 5614 5625 5637 5648 5659 5671 5682 5692 5701 5709 5718 5727 5735 5743 5751 5758 5766 5773 5779 5783 5786 5790 5792 5795 5797 5798
5577 5568 5560 5552 5545 5539 5534 5531 5530 5532 5536 5541 5548 5556 5566 5576 5588 5600 5611 5623 5635 5645 5656 5668 5679 5689 5698 5707 5716 5725 5734 5742 5750 5757 5765 5771 5776 5780 5783 5786 5789 5791 5793
5568 5559 5551 5543 5536 5530 5525 5522 5520 5522 5525 5529 5536 5544 5553 5564 5574 5585 5597 5609 5621 5632 5644 5656 5667 5678 5688 5697 5706 5716 5724 5733 5740 5749 5756 5763 5768 5773 5777 5780 5783 5785 5787